| time (UTC) | temp F | wind direction | speed MPH | gust MPH | rain 1hr in | rain 24hr in | rain mn in | humidity % | barometer mb |
| 20260507221520 | 58 | 158 | 1.0 | 5.0 | 0.00 | 0.00 | 0.00 | 43 | 1008.8 |
| 20260507221007 | 57 | 180 | 2.0 | 6.0 | 0.00 | 0.00 | 0.00 | 42 | 1008.8 |
| 20260507220517 | 57 | 144 | 1.0 | 8.0 | 0.00 | 0.00 | 0.00 | 42 | 1009.0 |
| 20260507220004 | 57 | 168 | 0.0 | 8.0 | 0.00 | 0.00 | 0.00 | 41 | 1009.1 |
| 20260507215503 | 57 | 223 | 1.0 | 5.0 | 0.00 | 0.00 | 0.00 | 43 | 1009.1 |
| 20260507215004 | 57 | 190 | 1.0 | 5.0 | 0.00 | 0.00 | 0.00 | 41 | 1009.1 |
| 20260507214502 | 57 | 170 | 1.0 | 4.0 | 0.00 | 0.00 | 0.00 | 43 | 1008.9 |
| 20260507214001 | 57 | 201 | 1.0 | 7.0 | 0.00 | 0.00 | 0.00 | 45 | 1008.8 |
| 20260507213504 | 58 | 173 | 1.0 | 7.0 | 0.00 | 0.00 | 0.00 | 40 | 1008.8 |
| 20260507213218 | 58 | 130 | 1.0 | 7.0 | 0.00 | 0.00 | 0.00 | 42 | 1008.8 |
| 20260507212459 | 58 | 243 | 1.0 | 8.0 | 0.00 | 0.00 | 0.00 | 41 | 1008.8 |
| 20260507211959 | 58 | 217 | 1.0 | 8.0 | 0.00 | 0.00 | 0.00 | 39 | 1008.8 |
| 20260507211941 | 58 | 146 | 1.0 | 5.0 | 0.00 | 0.00 | 0.00 | 43 | 1008.9 |
| 20260507210959 | 58 | 242 | 1.0 | 6.0 | 0.00 | 0.00 | 0.00 | 42 | 1008.8 |
| 20260507210500 | 58 | 199 | 1.0 | 7.0 | 0.00 | 0.00 | 0.00 | 40 | 1008.8 |
| 20260507205959 | 58 | 223 | 1.0 | 7.0 | 0.00 | 0.00 | 0.00 | 44 | 1008.8 |
| 20260507205457 | 58 | 121 | 1.0 | 6.0 | 0.00 | 0.00 | 0.00 | 42 | 1008.8 |
| 20260507204954 | 58 | 150 | 1.0 | 6.0 | 0.00 | 0.00 | 0.00 | 39 | 1008.9 |
| 20260507204714 | 58 | 92 | 1.0 | 6.0 | 0.00 | 0.00 | 0.00 | 41 | 1008.9 |
| 20260507203955 | 58 | 153 | 1.0 | 5.0 | 0.00 | 0.00 | 0.00 | 39 | 1008.9 |
| 20260507203455 | 58 | 165 | 1.0 | 9.0 | 0.00 | 0.00 | 0.00 | 39 | 1008.9 |
| 20260507203006 | 58 | 226 | 1.0 | 9.0 | 0.00 | 0.00 | 0.00 | 39 | 1009.0 |
| 20260507202452 | 58 | 84 | 1.0 | 8.0 | 0.00 | 0.00 | 0.00 | 40 | 1009.0 |
| 20260507202217 | 58 | 190 | 1.0 | 8.0 | 0.00 | 0.00 | 0.00 | 38 | 1009.0 |
| 20260507201450 | 58 | 188 | 1.0 | 8.0 | 0.00 | 0.00 | 0.00 | 39 | 1009.1 |
| 20260507200950 | 58 | 211 | 2.0 | 9.0 | 0.00 | 0.00 | 0.00 | 42 | 1009.1 |
| 20260507200451 | 58 | 41 | 3.0 | 9.0 | 0.00 | 0.00 | 0.00 | 39 | 1009.2 |
| 20260507200213 | 58 | 123 | 2.0 | 9.0 | 0.00 | 0.00 | 0.00 | 41 | 1009.2 |
| 20260507195449 | 58 | 179 | 2.0 | 10.0 | 0.00 | 0.00 | 0.00 | 42 | 1009.3 |
| 20260507194949 | 57 | 161 | 2.0 | 10.0 | 0.00 | 0.00 | 0.00 | 40 | 1009.2 |
| 20260507194447 | 57 | 161 | 2.0 | 10.0 | 0.00 | 0.00 | 0.00 | 40 | 1009.3 |
| 20260507193946 | 57 | 196 | 2.0 | 10.0 | 0.00 | 0.00 | 0.00 | 39 | 1009.3 |
| 20260507193447 | 58 | 145 | 2.0 | 9.0 | 0.00 | 0.00 | 0.00 | 41 | 1009.4 |
| 20260507192947 | 58 | 202 | 2.0 | 8.0 | 0.00 | 0.00 | 0.00 | 40 | 1009.4 |
| 20260507192447 | 57 | 81 | 1.0 | 8.0 | 0.00 | 0.00 | 0.00 | 42 | 1009.5 |
| 20260507191944 | 57 | 192 | 1.0 | 6.0 | 0.00 | 0.00 | 0.00 | 42 | 1009.5 |
| 20260507191444 | 57 | 128 | 1.0 | 6.0 | 0.00 | 0.00 | 0.00 | 41 | 1009.5 |
| 20260507190945 | 58 | 174 | 1.0 | 9.0 | 0.00 | 0.00 | 0.00 | 42 | 1009.5 |
| 20260507190446 | 58 | 188 | 3.0 | 15.0 | 0.00 | 0.00 | 0.00 | 39 | 1009.6 |
| 20260507185945 | 59 | 138 | 2.0 | 15.0 | 0.00 | 0.00 | 0.00 | 38 | 1009.5 |
| 20260507185709 | 59 | 197 | 2.0 | 14.0 | 0.00 | 0.00 | 0.00 | 40 | 1009.5 |
| 20260507184944 | 59 | 104 | 3.0 | 14.0 | 0.00 | 0.00 | 0.00 | 38 | 1009.6 |
| 20260507184444 | 58 | 82 | 2.0 | 9.0 | 0.00 | 0.00 | 0.00 | 42 | 1009.6 |
| 20260507183944 | 57 | 140 | 2.0 | 9.0 | 0.00 | 0.00 | 0.00 | 39 | 1009.7 |
| 20260507183444 | 57 | 192 | 1.0 | 7.0 | 0.00 | 0.00 | 0.00 | 42 | 1009.7 |
| 20260507182955 | 57 | 240 | 2.0 | 7.0 | 0.00 | 0.00 | 0.00 | 42 | 1009.8 |
| 20260507182442 | 56 | 198 | 2.0 | 7.0 | 0.00 | 0.00 | 0.00 | 39 | 1009.8 |
| 20260507181941 | 57 | 178 | 2.0 | 7.0 | 0.00 | 0.00 | 0.00 | 41 | 1009.7 |
| 20260507181440 | 57 | 174 | 2.0 | 7.0 | 0.00 | 0.00 | 0.00 | 40 | 1009.8 |
| 20260507180938 | 57 | 218 | 1.0 | 6.0 | 0.00 | 0.00 | 0.00 | 44 | 1009.9 |
| 20260507180710 | 57 | 103 | 1.0 | 10.0 | 0.00 | 0.00 | 0.00 | 40 | 1009.8 |
| 20260507175938 | 57 | 198 | 2.0 | 11.0 | 0.00 | 0.00 | 0.00 | 41 | 1009.9 |
| 20260507175438 | 57 | 105 | 2.0 | 11.0 | 0.00 | 0.00 | 0.00 | 39 | 1010.0 |
| 20260507174937 | 57 | 82 | 1.0 | 7.0 | 0.00 | 0.00 | 0.00 | 41 | 1010.0 |
| 20260507174436 | 57 | 158 | 2.0 | 10.0 | 0.00 | 0.00 | 0.00 | 43 | 1010.1 |
| 20260507173935 | 57 | 350 | 3.0 | 11.0 | 0.00 | 0.00 | 0.00 | 42 | 1010.2 |
| 20260507173432 | 57 | 50 | 3.0 | 11.0 | 0.00 | 0.00 | 0.00 | 42 | 1010.3 |
| 20260507172932 | 57 | 107 | 3.0 | 8.0 | 0.00 | 0.00 | 0.00 | 39 | 1010.4 |
| 20260507172432 | 57 | 253 | 3.0 | 12.0 | 0.00 | 0.00 | 0.00 | 42 | 1010.5 |
| 20260507171933 | 58 | 221 | 3.0 | 12.0 | 0.00 | 0.00 | 0.00 | 45 | 1010.6 |
| 20260507171445 | 57 | 249 | 3.0 | 10.0 | 0.00 | 0.00 | 0.00 | 41 | 1010.3 |
| 20260507170932 | 57 | 275 | 3.0 | 10.0 | 0.00 | 0.00 | 0.00 | 42 | 1010.6 |
| 20260507170659 | 57 | 206 | 2.0 | 10.0 | 0.00 | 0.00 | 0.00 | 41 | 1010.6 |
| 20260507165935 | 57 | 270 | 2.0 | 9.0 | 0.00 | 0.00 | 0.00 | 41 | 1010.7 |
| 20260507165432 | 56 | 235 | 2.0 | 11.0 | 0.00 | 0.00 | 0.00 | 44 | 1010.7 |
| 20260507164932 | 56 | 192 | 2.0 | 11.0 | 0.00 | 0.00 | 0.00 | 43 | 1010.8 |
| 20260507164433 | 55 | 178 | 2.0 | 8.0 | 0.00 | 0.00 | 0.00 | 42 | 1010.8 |
| 20260507163932 | 55 | 177 | 2.0 | 8.0 | 0.00 | 0.00 | 0.00 | 41 | 1011.1 |
| 20260507163432 | 56 | 182 | 2.0 | 8.0 | 0.00 | 0.00 | 0.00 | 43 | 1011.1 |
| 20260507163158 | 56 | 180 | 3.0 | 9.0 | 0.00 | 0.00 | 0.00 | 42 | 1011.1 |
| 20260507162432 | 56 | 199 | 3.0 | 11.0 | 0.00 | 0.00 | 0.00 | 40 | 1011.0 |
| 20260507161933 | 56 | 98 | 2.0 | 11.0 | 0.00 | 0.00 | 0.00 | 42 | 1011.2 |
| 20260507161432 | 55 | 207 | 1.0 | 7.0 | 0.00 | 0.00 | 0.00 | 44 | 1011.2 |
| 20260507160933 | 55 | 140 | 1.0 | 5.0 | 0.00 | 0.00 | 0.00 | 42 | 1011.2 |
| 20260507160432 | 54 | 201 | 1.0 | 7.0 | 0.00 | 0.00 | 0.00 | 44 | 1011.2 |
| 20260507155933 | 54 | 126 | 1.0 | 7.0 | 0.00 | 0.00 | 0.00 | 43 | 1011.3 |
| 20260507155432 | 55 | 181 | 2.0 | 10.0 | 0.00 | 0.00 | 0.00 | 40 | 1011.4 |
| 20260507154932 | 55 | 171 | 3.0 | 10.0 | 0.00 | 0.00 | 0.00 | 40 | 1011.4 |
| 20260507154432 | 55 | 173 | 3.0 | 9.0 | 0.00 | 0.00 | 0.00 | 44 | 1011.4 |
| 20260507153932 | 55 | 128 | 3.0 | 9.0 | 0.00 | 0.00 | 0.00 | 45 | 1011.5 |
| 20260507153433 | 55 | 182 | 3.0 | 9.0 | 0.00 | 0.00 | 0.00 | 44 | 1011.6 |
| 20260507152933 | 54 | 144 | 3.0 | 9.0 | 0.00 | 0.00 | 0.00 | 44 | 1011.7 |
| 20260507152433 | 54 | 111 | 3.0 | 13.0 | 0.00 | 0.00 | 0.00 | 44 | 1011.8 |
| 20260507151932 | 54 | 123 | 3.0 | 13.0 | 0.00 | 0.00 | 0.00 | 44 | 1012.1 |
| 20260507151432 | 54 | 165 | 3.0 | 9.0 | 0.00 | 0.00 | 0.00 | 45 | 1011.9 |
| 20260507150929 | 54 | 298 | 2.0 | 12.0 | 0.00 | 0.00 | 0.00 | 42 | 1012.0 |
| 20260507150423 | 54 | 267 | 2.0 | 12.0 | 0.00 | 0.00 | 0.00 | 44 | 1012.2 |
| 20260507145917 | 54 | 155 | 2.0 | 10.0 | 0.00 | 0.00 | 0.00 | 46 | 1012.2 |
| 20260507145411 | 54 | 227 | 3.0 | 10.0 | 0.00 | 0.00 | 0.00 | 45 | 1012.2 |
| 20260507144910 | 54 | 207 | 2.0 | 10.0 | 0.00 | 0.00 | 0.00 | 44 | 1012.2 |
| 20260507144410 | 54 | 178 | 1.0 | 6.0 | 0.00 | 0.00 | 0.00 | 45 | 1012.3 |
| 20260507143910 | 54 | 208 | 1.0 | 7.0 | 0.00 | 0.00 | 0.00 | 46 | 1012.4 |
| 20260507143410 | 53 | 138 | 1.0 | 7.0 | 0.00 | 0.00 | 0.00 | 50 | 1012.3 |
| 20260507142910 | 53 | 192 | 2.0 | 12.0 | 0.00 | 0.00 | 0.00 | 46 | 1012.3 |
| 20260507142410 | 52 | 262 | 2.0 | 12.0 | 0.00 | 0.00 | 0.00 | 49 | 1012.5 |
| 20260507142134 | 52 | 264 | 2.0 | 8.0 | 0.00 | 0.00 | 0.00 | 45 | 1012.6 |
| 20260507141410 | 52 | 187 | 2.0 | 8.0 | 0.00 | 0.00 | 0.00 | 46 | 1012.6 |
| 20260507140911 | 52 | 252 | 2.0 | 8.0 | 0.00 | 0.00 | 0.00 | 48 | 1012.7 |
| 20260507140633 | 52 | 146 | 2.0 | 8.0 | 0.00 | 0.00 | 0.00 | 52 | 1012.7 |
| 20260507135910 | 51 | 194 | 1.0 | 7.0 | 0.00 | 0.00 | 0.00 | 50 | 1012.8 |
| 20260507135410 | 51 | 222 | 1.0 | 8.0 | 0.00 | 0.00 | 0.00 | 52 | 1012.9 |
| 20260507134910 | 51 | 262 | 2.0 | 8.0 | 0.00 | 0.00 | 0.00 | 49 | 1012.9 |
| 20260507134410 | 50 | 96 | 1.0 | 8.0 | 0.00 | 0.00 | 0.00 | 49 | 1012.9 |
| 20260507133907 | 50 | 167 | 0.0 | 6.0 | 0.00 | 0.00 | 0.00 | 53 | 1012.9 |
| 20260507133629 | 49 | 29 | 1.0 | 6.0 | 0.00 | 0.00 | 0.00 | 55 | 1012.9 |
| 20260507132904 | 49 | 84 | 2.0 | 8.0 | 0.00 | 0.01 | 0.00 | 57 | 1012.9 |
| 20260507132358 | 49 | 74 | 2.0 | 9.0 | 0.00 | 0.01 | 0.00 | 59 | 1012.9 |
| 20260507131852 | 49 | 133 | 1.0 | 9.0 | 0.00 | 0.01 | 0.00 | 59 | 1013.0 |
| 20260507131346 | 48 | 82 | 2.0 | 5.0 | 0.00 | 0.01 | 0.00 | 61 | 1013.1 |
| 20260507130839 | 48 | 53 | 2.0 | 5.0 | 0.00 | 0.01 | 0.00 | 61 | 1013.1 |
| 20260507130340 | 47 | 53 | 1.0 | 5.0 | 0.00 | 0.01 | 0.00 | 64 | 1013.3 |
| 20260507125838 | 47 | 76 | 1.0 | 4.0 | 0.00 | 0.01 | 0.00 | 65 | 1013.3 |
| 20260507125338 | 46 | 84 | 1.0 | 7.0 | 0.00 | 0.01 | 0.00 | 68 | 1013.3 |
| 20260507124837 | 46 | 90 | 1.0 | 7.0 | 0.00 | 0.01 | 0.00 | 67 | 1013.4 |
| 20260507124335 | 45 | 65 | 1.0 | 6.0 | 0.00 | 0.01 | 0.00 | 68 | 1013.4 |
| 20260507123834 | 45 | 70 | 1.0 | 5.0 | 0.00 | 0.01 | 0.00 | 69 | 1013.4 |
| 20260507123331 | 44 | 85 | 1.0 | 4.0 | 0.00 | 0.01 | 0.00 | 70 | 1013.4 |
| 20260507122834 | 44 | 52 | 1.0 | 4.0 | 0.00 | 0.01 | 0.00 | 72 | 1013.3 |
| 20260507122332 | 44 | 69 | 1.0 | 4.0 | 0.00 | 0.01 | 0.00 | 73 | 1013.4 |
| 20260507121831 | 43 | 109 | 0.0 | 3.0 | 0.00 | 0.01 | 0.00 | 74 | 1013.5 |
| 20260507121332 | 42 | 348 | 0.0 | 2.0 | 0.00 | 0.02 | 0.00 | 77 | 1013.4 |
| 20260507120832 | 41 | 203 | 0.0 | 0.0 | 0.00 | 0.02 | 0.00 | 80 | 1013.4 |
| 20260507120606 | 40 | 203 | 0.0 | 0.0 | 0.00 | 0.02 | 0.00 | 83 | 1013.3 |
| 20260507115831 | 39 | 203 | 0.0 | 0.0 | 0.00 | 0.02 | 0.00 | 87 | 1013.3 |
| 20260507115331 | 38 | 203 | 0.0 | 0.0 | 0.00 | 0.03 | 0.00 | 88 | 1013.1 |
| 20260507115107 | 37 | 203 | 0.0 | 0.0 | 0.00 | 0.04 | 0.00 | 90 | 1013.1 |
| 20260507114332 | 36 | 203 | 0.0 | 0.0 | 0.00 | 0.06 | 0.00 | 90 | 1013.0 |
| 20260507114058 | 36 | 203 | 0.0 | 0.0 | 0.00 | 0.10 | 0.00 | 90 | 1013.0 |
| 20260507113328 | 35 | 203 | 0.0 | 0.0 | 0.00 | 0.12 | 0.00 | 90 | 1013.0 |
| 20260507113043 | 35 | 203 | 0.0 | 0.0 | 0.00 | 0.14 | 0.00 | 91 | 1013.0 |
| 20260507112321 | 34 | 203 | 0.0 | 0.0 | 0.00 | 0.15 | 0.00 | 92 | 1013.0 |
| 20260507111819 | 34 | 203 | 0.0 | 0.0 | 0.00 | 0.15 | 0.00 | 92 | 1013.0 |
| 20260507111558 | 33 | 203 | 0.0 | 0.0 | 0.00 | 0.16 | 0.00 | 92 | 1013.0 |
| 20260507111041 | 33 | 203 | 0.0 | 0.0 | 0.00 | 0.17 | 0.00 | 91 | 1012.9 |
| 20260507110320 | 33 | 203 | 0.0 | 0.0 | 0.00 | 0.17 | 0.00 | 91 | 1012.9 |
| 20260507110045 | 32 | 203 | 0.0 | 0.0 | 0.00 | 0.18 | 0.00 | 90 | 1012.8 |
| 20260507105319 | 32 | 203 | 0.0 | 0.0 | 0.00 | 0.19 | 0.00 | 90 | 1012.8 |
| 20260507104820 | 32 | 203 | 0.0 | 0.0 | 0.00 | 0.19 | 0.00 | 90 | 1012.7 |
| 20260507104320 | 32 | 203 | 0.0 | 0.0 | 0.00 | 0.20 | 0.00 | 90 | 1012.7 |
| 20260507103820 | 32 | 203 | 0.0 | 0.0 | 0.00 | 0.20 | 0.00 | 90 | 1012.7 |
| 20260507103319 | 32 | 203 | 0.0 | 0.0 | 0.00 | 0.20 | 0.00 | 90 | 1012.7 |
| 20260507103041 | 33 | 203 | 0.0 | 0.0 | 0.00 | 0.21 | 0.00 | 90 | 1012.5 |
| 20260507102319 | 33 | 203 | 0.0 | 0.0 | 0.00 | 0.22 | 0.00 | 89 | 1012.5 |
| 20260507101819 | 33 | 203 | 0.0 | 0.0 | 0.00 | 0.23 | 0.00 | 89 | 1012.7 |
| 20260507101547 | 33 | 203 | 0.0 | 0.0 | 0.00 | 0.23 | 0.00 | 89 | 1012.6 |
| 20260507100821 | 33 | 203 | 0.0 | 0.0 | 0.00 | 0.24 | 0.00 | 89 | 1012.6 |
| 20260507100318 | 33 | 203 | 0.0 | 0.0 | 0.00 | 0.25 | 0.00 | 88 | 1012.5 |
| 20260507095823 | 33 | 203 | 0.0 | 0.0 | 0.00 | 0.26 | 0.00 | 88 | 1012.5 |
| 20260507095320 | 33 | 203 | 0.0 | 0.0 | 0.00 | 0.27 | 0.00 | 88 | 1012.5 |
| 20260507094821 | 34 | 203 | 0.0 | 0.0 | 0.00 | 0.27 | 0.00 | 88 | 1012.5 |
| 20260507094319 | 34 | 203 | 0.0 | 0.0 | 0.00 | 0.28 | 0.00 | 88 | 1012.5 |
| 20260507093821 | 34 | 203 | 0.0 | 0.0 | 0.00 | 0.28 | 0.00 | 88 | 1012.6 |
| 20260507093320 | 34 | 203 | 0.0 | 0.0 | 0.00 | 0.28 | 0.00 | 88 | 1012.5 |
| 20260507093040 | 34 | 203 | 0.0 | 0.0 | 0.00 | 0.28 | 0.00 | 87 | 1012.6 |
| 20260507092320 | 35 | 203 | 0.0 | 0.0 | 0.00 | 0.28 | 0.00 | 87 | 1012.5 |
| 20260507091822 | 35 | 203 | 0.0 | 0.0 | 0.00 | 0.28 | 0.00 | 87 | 1012.5 |
| 20260507091549 | 35 | 203 | 0.0 | 0.0 | 0.00 | 0.28 | 0.00 | 87 | 1012.6 |
| 20260507090821 | 35 | 203 | 0.0 | 0.0 | 0.00 | 0.28 | 0.00 | 87 | 1012.5 |
| 20260507090319 | 35 | 203 | 0.0 | 0.0 | 0.00 | 0.28 | 0.00 | 86 | 1012.4 |
| 20260507085821 | 36 | 203 | 0.0 | 0.0 | 0.00 | 0.28 | 0.00 | 86 | 1012.4 |
| 20260507085319 | 36 | 203 | 0.0 | 0.0 | 0.00 | 0.29 | 0.00 | 85 | 1012.3 |
| 20260507084821 | 36 | 203 | 0.0 | 0.0 | 0.00 | 0.29 | 0.00 | 85 | 1012.3 |
| 20260507084320 | 37 | 203 | 0.0 | 0.0 | 0.00 | 0.29 | 0.00 | 85 | 1012.3 |
| 20260507083821 | 37 | 203 | 0.0 | 0.0 | 0.00 | 0.29 | 0.00 | 84 | 1012.3 |
| 20260507083319 | 37 | 203 | 0.0 | 0.0 | 0.00 | 0.29 | 0.00 | 84 | 1012.3 |
| 20260507082820 | 38 | 203 | 0.0 | 0.0 | 0.00 | 0.29 | 0.00 | 83 | 1012.3 |
| 20260507082318 | 38 | 203 | 0.0 | 0.0 | 0.00 | 0.29 | 0.00 | 83 | 1012.4 |
| 20260507081816 | 38 | 203 | 0.0 | 0.0 | 0.00 | 0.29 | 0.00 | 83 | 1012.4 |
| 20260507081315 | 39 | 203 | 0.0 | 0.0 | 0.00 | 0.29 | 0.00 | 82 | 1012.4 |
| 20260507080812 | 39 | 203 | 0.0 | 0.0 | 0.00 | 0.29 | 0.00 | 81 | 1012.5 |
| 20260507080540 | 39 | 203 | 0.0 | 0.0 | 0.00 | 0.29 | 0.00 | 81 | 1012.4 |
| 20260507075813 | 40 | 203 | 0.0 | 0.0 | 0.00 | 0.30 | 0.00 | 80 | 1012.4 |
| 20260507075535 | 40 | 203 | 0.0 | 0.0 | 0.00 | 0.30 | 0.00 | 79 | 1012.5 |
| 20260507074813 | 40 | 203 | 0.0 | 0.0 | 0.00 | 0.30 | 0.00 | 79 | 1012.5 |
| 20260507074759 | 41 | 203 | 0.0 | 0.0 | 0.00 | 0.30 | 0.00 | 80 | 1012.5 |
| 20260507073811 | 41 | 203 | 0.0 | 0.0 | 0.00 | 0.30 | 0.00 | 79 | 1012.5 |
| 20260507073312 | 42 | 203 | 0.0 | 0.0 | 0.00 | 0.30 | 0.00 | 79 | 1012.5 |
| 20260507072811 | 42 | 203 | 0.0 | 0.0 | 0.00 | 0.30 | 0.00 | 78 | 1012.5 |
| 20260507072311 | 42 | 203 | 0.0 | 0.0 | 0.00 | 0.30 | 0.00 | 77 | 1012.5 |
| 20260507072027 | 42 | 203 | 0.0 | 0.0 | 0.00 | 0.30 | 0.00 | 77 | 1012.5 |
| 20260507071308 | 43 | 203 | 0.0 | 0.0 | 0.00 | 0.30 | 0.00 | 77 | 1012.4 |
| 20260507070801 | 43 | 203 | 0.0 | 0.0 | 0.00 | 0.30 | 0.00 | 76 | 1012.4 |
| 20260507070254 | 43 | 203 | 0.0 | 0.0 | 0.00 | 0.30 | 0.00 | 76 | 1012.4 |
| 20260507065748 | 43 | 203 | 0.0 | 0.0 | 0.00 | 0.30 | 0.00 | 74 | 1012.4 |
| 20260507065249 | 43 | 203 | 0.0 | 0.0 | 0.00 | 0.30 | 0.00 | 77 | 1012.4 |
| 20260507064750 | 43 | 203 | 0.0 | 0.0 | 0.00 | 0.30 | 0.00 | 78 | 1012.3 |
| 20260507064451 | 43 | 203 | 0.0 | 0.0 | 0.00 | 0.31 | 0.00 | 78 | 1012.4 |
| 20260507064442 | 43 | 203 | 0.0 | 0.0 | 0.00 | 0.30 | 0.00 | 78 | 1012.4 |
| 20260507063241 | 43 | 203 | 0.0 | 0.0 | 0.00 | 0.31 | 0.00 | 76 | 1012.4 |
| 20260507062741 | 43 | 203 | 0.0 | 0.0 | 0.00 | 0.31 | 0.00 | 76 | 1012.5 |
| 20260507062240 | 43 | 203 | 0.0 | 0.0 | 0.00 | 0.31 | 0.00 | 79 | 1012.5 |
| 20260507061739 | 43 | 203 | 0.0 | 0.0 | 0.00 | 0.31 | 0.00 | 78 | 1012.7 |
| 20260507061237 | 43 | 203 | 0.0 | 0.0 | 0.00 | 0.31 | 0.00 | 80 | 1012.8 |
| 20260507060737 | 43 | 203 | 0.0 | 0.0 | 0.00 | 0.31 | 0.00 | 80 | 1012.8 |
| 20260507060500 | 43 | 203 | 0.0 | 0.0 | 0.00 | 0.31 | 0.00 | 77 | 1012.9 |
| 20260507055734 | 43 | 203 | 0.0 | 0.0 | 0.00 | 0.31 | 0.00 | 79 | 1012.8 |
| 20260507055232 | 43 | 203 | 0.0 | 0.0 | 0.00 | 0.31 | 0.00 | 78 | 1012.9 |
| 20260507054733 | 43 | 203 | 0.0 | 0.0 | 0.00 | 0.31 | 0.00 | 80 | 1012.9 |
| 20260507054232 | 43 | 203 | 0.0 | 0.0 | 0.00 | 0.31 | 0.00 | 79 | 1012.9 |
| 20260507053732 | 43 | 203 | 0.0 | 0.0 | 0.00 | 0.31 | 0.00 | 78 | 1012.9 |
| 20260507053231 | 44 | 203 | 0.0 | 0.0 | 0.00 | 0.31 | 0.00 | 78 | 1012.8 |
| 20260507052731 | 44 | 203 | 0.0 | 0.0 | 0.00 | 0.31 | 0.00 | 77 | 1013.0 |
| 20260507052231 | 44 | 203 | 0.0 | 0.0 | 0.00 | 0.31 | 0.00 | 75 | 1013.0 |
| 20260507051731 | 44 | 203 | 0.0 | 0.0 | 0.00 | 0.31 | 0.00 | 75 | 1013.0 |
| 20260507051230 | 44 | 203 | 0.0 | 0.0 | 0.00 | 0.31 | 0.00 | 75 | 1012.9 |
| 20260507050729 | 44 | 203 | 0.0 | 0.0 | 0.00 | 0.31 | 0.00 | 76 | 1012.9 |
| 20260507050228 | 44 | 203 | 0.0 | 0.0 | 0.00 | 0.31 | 0.00 | 75 | 1012.9 |
| 20260507045952 | 44 | 203 | 0.0 | 0.0 | 0.00 | 0.31 | 0.00 | 74 | 1013.0 |
| 20260507045443 | 45 | 203 | 0.0 | 0.0 | 0.00 | 0.31 | 0.00 | 72 | 1013.0 |
| 20260507044948 | 45 | 203 | 0.0 | 0.0 | 0.00 | 0.31 | 0.00 | 72 | 1013.0 |
| 20260507044225 | 45 | 203 | 0.0 | 0.0 | 0.00 | 0.31 | 0.00 | 71 | 1013.0 |
| 20260507043725 | 45 | 203 | 0.0 | 0.0 | 0.00 | 0.31 | 0.00 | 70 | 1013.0 |
| 20260507043439 | 46 | 203 | 0.0 | 0.0 | 0.00 | 0.31 | 0.00 | 72 | 1012.9 |
| 20260507042722 | 46 | 203 | 0.0 | 0.0 | 0.00 | 0.31 | 0.00 | 70 | 1012.8 |
| 20260507042439 | 46 | 203 | 0.0 | 0.0 | 0.00 | 0.31 | 0.00 | 68 | 1012.9 |
| 20260507041720 | 46 | 203 | 0.0 | 0.0 | 0.00 | 0.31 | 0.00 | 70 | 1012.8 |
| 20260507041219 | 46 | 203 | 0.0 | 0.0 | 0.00 | 0.31 | 0.00 | 70 | 1012.7 |
| 20260507040719 | 46 | 203 | 0.0 | 0.0 | 0.00 | 0.31 | 0.00 | 71 | 1012.7 |
| 20260507040219 | 46 | 203 | 0.0 | 0.0 | 0.00 | 0.31 | 0.00 | 70 | 1012.7 |
| 20260507035719 | 46 | 203 | 0.0 | 0.0 | 0.00 | 0.31 | 0.31 | 66 | 1012.6 |
| 20260507035216 | 47 | 203 | 0.0 | 0.0 | 0.00 | 0.31 | 0.31 | 67 | 1012.7 |
| 20260507034717 | 47 | 203 | 0.0 | 0.0 | 0.00 | 0.31 | 0.31 | 66 | 1012.7 |
| 20260507034217 | 47 | 203 | 0.0 | 0.0 | 0.00 | 0.31 | 0.31 | 64 | 1012.6 |
| 20260507033717 | 47 | 203 | 0.0 | 0.0 | 0.00 | 0.31 | 0.31 | 65 | 1012.7 |
| 20260507033215 | 47 | 203 | 0.0 | 3.0 | 0.00 | 0.31 | 0.31 | 65 | 1012.7 |
| 20260507032934 | 47 | 203 | 0.0 | 3.0 | 0.00 | 0.31 | 0.31 | 65 | 1012.7 |
| 20260507032214 | 47 | 203 | 0.0 | 3.0 | 0.00 | 0.31 | 0.31 | 65 | 1012.5 |
| 20260507031715 | 47 | 203 | 0.0 | 3.0 | 0.00 | 0.31 | 0.31 | 67 | 1012.6 |
| 20260507031214 | 47 | 242 | 0.0 | 2.0 | 0.00 | 0.31 | 0.31 | 67 | 1012.5 |
| 20260507030714 | 47 | 242 | 0.0 | 2.0 | 0.00 | 0.31 | 0.31 | 66 | 1012.5 |
| 20260507030215 | 47 | 253 | 0.0 | 0.0 | 0.00 | 0.31 | 0.31 | 65 | 1012.3 |
| 20260507025940 | 47 | 253 | 0.0 | 0.0 | 0.00 | 0.31 | 0.31 | 67 | 1012.2 |
| 20260507025210 | 47 | 253 | 0.0 | 0.0 | 0.00 | 0.31 | 0.31 | 65 | 1012.4 |
| 20260507024710 | 47 | 253 | 0.0 | 2.0 | 0.00 | 0.31 | 0.31 | 64 | 1012.3 |
| 20260507024210 | 47 | 253 | 0.0 | 2.0 | 0.00 | 0.31 | 0.31 | 62 | 1012.3 |
| 20260507023711 | 47 | 278 | 0.0 | 0.0 | 0.00 | 0.31 | 0.31 | 63 | 1012.2 |
| 20260507023208 | 47 | 278 | 0.0 | 0.0 | 0.00 | 0.31 | 0.31 | 62 | 1012.3 |
| 20260507022721 | 48 | 278 | 0.0 | 0.0 | 0.00 | 0.31 | 0.31 | 62 | 1012.3 |
| 20260507022206 | 48 | 278 | 0.0 | 3.0 | 0.00 | 0.31 | 0.31 | 61 | 1012.3 |
| 20260507021706 | 48 | 279 | 0.0 | 3.0 | 0.00 | 0.31 | 0.31 | 61 | 1012.2 |
| 20260507021425 | 48 | 279 | 0.0 | 5.0 | 0.00 | 0.31 | 0.31 | 61 | 1012.3 |
| 20260507020704 | 48 | 189 | 0.0 | 6.0 | 0.00 | 0.31 | 0.31 | 61 | 1012.2 |
| 20260507020653 | 48 | 230 | 0.0 | 6.0 | 0.00 | 0.31 | 0.31 | 61 | 1012.3 |
| 20260507015700 | 49 | 201 | 1.0 | 5.0 | 0.00 | 0.31 | 0.31 | 62 | 1012.2 |
| 20260507015200 | 49 | 226 | 1.0 | 8.0 | 0.00 | 0.31 | 0.31 | 62 | 1012.0 |
| 20260507014700 | 49 | 217 | 1.0 | 8.0 | 0.00 | 0.31 | 0.31 | 65 | 1012.1 |
| 20260507014431 | 49 | 312 | 1.0 | 6.0 | 0.00 | 0.31 | 0.31 | 73 | 1012.3 |
| 20260507014146 | 49 | 272 | 0.0 | 6.0 | 0.00 | 0.31 | 0.31 | 74 | 1012.4 |
| 20260507013426 | 50 | 180 | 0.0 | 6.0 | 0.00 | 0.31 | 0.31 | 76 | 1012.3 |
| 20260507012700 | 50 | 223 | 0.0 | 2.0 | 0.00 | 0.31 | 0.31 | 76 | 1012.2 |
| 20260507012200 | 50 | 196 | 0.0 | 2.0 | 0.00 | 0.31 | 0.31 | 76 | 1012.4 |
| 20260507011702 | 50 | 146 | 0.0 | 0.0 | 0.00 | 0.31 | 0.31 | 77 | 1012.3 |
| 20260507011424 | 50 | 146 | 0.0 | 0.0 | 0.00 | 0.31 | 0.31 | 77 | 1012.3 |
| 20260507010700 | 50 | 146 | 0.0 | 2.0 | 0.00 | 0.31 | 0.31 | 77 | 1012.4 |
| 20260507010159 | 50 | 146 | 0.0 | 2.0 | 0.00 | 0.31 | 0.31 | 76 | 1012.2 |
| 20260507005656 | 50 | 146 | 0.0 | 3.0 | 0.00 | 0.31 | 0.31 | 76 | 1012.1 |
| 20260507005155 | 50 | 143 | 0.0 | 3.0 | 0.00 | 0.31 | 0.31 | 76 | 1012.1 |
| 20260507004656 | 51 | 211 | 0.0 | 2.0 | 0.00 | 0.31 | 0.31 | 76 | 1012.3 |
| 20260507004153 | 51 | 223 | 0.0 | 5.0 | 0.00 | 0.31 | 0.31 | 75 | 1012.3 |
| 20260507003647 | 51 | 224 | 0.0 | 5.0 | 0.00 | 0.31 | 0.31 | 75 | 1012.1 |
| 20260507003141 | 51 | 178 | 0.0 | 3.0 | 0.00 | 0.31 | 0.31 | 75 | 1012.1 |
| 20260507002635 | 51 | 147 | 0.0 | 6.0 | 0.00 | 0.31 | 0.31 | 75 | 1012.0 |
| 20260507002129 | 51 | 146 | 0.0 | 6.0 | 0.00 | 0.31 | 0.31 | 75 | 1011.8 |
| 20260507001849 | 51 | 292 | 0.0 | 3.0 | 0.00 | 0.31 | 0.31 | 75 | 1011.8 |
| 20260507001124 | 51 | 292 | 0.0 | 3.0 | 0.00 | 0.31 | 0.31 | 75 | 1011.7 |
| 20260507000624 | 51 | 150 | 0.0 | 2.0 | 0.00 | 0.31 | 0.31 | 76 | 1011.5 |
| 20260507000125 | 51 | 194 | 0.0 | 3.0 | 0.00 | 0.31 | 0.31 | 76 | 1011.5 |
| 20260507000109 | 51 | 197 | 0.0 | 3.0 | 0.00 | 0.31 | 0.31 | 76 | 1011.5 |
| 20260506235118 | 51 | 176 | 1.0 | 7.0 | 0.00 | 0.31 | 0.31 | 76 | 1011.5 |
| 20260506234619 | 51 | 177 | 1.0 | 7.0 | 0.00 | 0.31 | 0.31 | 76 | 1011.3 |
| 20260506234119 | 51 | 133 | 0.0 | 4.0 | 0.00 | 0.31 | 0.31 | 78 | 1011.3 |
| 20260506233619 | 51 | 104 | 0.0 | 2.0 | 0.00 | 0.31 | 0.31 | 79 | 1011.1 |
| 20260506233118 | 51 | 103 | 0.0 | 2.0 | 0.00 | 0.31 | 0.31 | 80 | 1011.0 |
| 20260506232621 | 51 | 197 | 0.0 | 0.0 | 0.00 | 0.31 | 0.31 | 80 | 1011.0 |
| 20260506232118 | 51 | 197 | 0.0 | 0.0 | 0.00 | 0.31 | 0.31 | 80 | 1010.8 |
| 20260506231618 | 51 | 197 | 0.0 | 2.0 | 0.00 | 0.31 | 0.31 | 80 | 1010.7 |
| 20260506231118 | 51 | 197 | 0.0 | 2.0 | 0.00 | 0.31 | 0.31 | 80 | 1010.7 |
| 20260506230619 | 51 | 198 | 0.0 | 0.0 | 0.00 | 0.31 | 0.31 | 81 | 1010.7 |
| 20260506230119 | 51 | 198 | 0.0 | 1.0 | 0.00 | 0.31 | 0.31 | 81 | 1010.7 |
| 20260506225618 | 51 | 198 | 0.0 | 2.0 | 0.00 | 0.31 | 0.31 | 80 | 1010.7 |
| 20260506225118 | 51 | 198 | 0.0 | 2.0 | 0.00 | 0.31 | 0.31 | 80 | 1010.6 |
| 20260506224618 | 51 | 198 | 0.0 | 2.0 | 0.00 | 0.31 | 0.31 | 81 | 1010.7 |
| 20260506224111 | 51 | 199 | 0.0 | 0.0 | 0.00 | 0.31 | 0.31 | 81 | 1011.0 |
| 20260506223605 | 51 | 199 | 0.0 | 0.0 | 0.00 | 0.31 | 0.31 | 81 | 1011.0 |
| 20260506223105 | 51 | 199 | 0.0 | 0.0 | 0.00 | 0.31 | 0.31 | 82 | 1011.0 |
| 20260506222824 | 51 | 199 | 0.0 | 2.0 | 0.00 | 0.31 | 0.31 | 81 | 1011.0 |
| 20260506222120 | 51 | 199 | 0.0 | 3.0 | 0.00 | 0.31 | 0.31 | 82 | 1010.8 |
| 20260506221828 | 51 | 216 | 0.0 | 3.0 | 0.00 | 0.31 | 0.31 | 81 | 1010.6 |